Location: Newark
(25.4800°N, 85.7200°E)
Time: 11:13:14
(UTC+00:00)

Explorer 11/Cluster Stage 4 - Pass Details

Date: 26 August 2019
Orbit: 467 x 1260 km, 28.8° (Epoch: 19 September)

Event Time Altitude Azimuth Distance (km) Brightness Sun altitude
Rises 09:22:10 0° 282° (WNW) 4,167 11.0 44.2°
Reaches altitude 10° 09:25:23 10° 275° (W) 3,147 10.7 43.5°
Maximum altitude 09:32:38 40° 209° (SSW) 1,550 9.1 41.9°
Drops below altitude 10° 09:38:51 10° 141° (SE) 2,693 9.2 40.5°
Sets 09:41:25 0° 134° (SE) 3,515 9.6 39.9°
